Regional Weather Roundup
Issued by NWS Newport/Morehead, NC

Home | Current Version | Previous Version | Text Only | Print | Product List | Glossary On
Versions: 1 2 3 4 5 6 7 8 9 10 11 12 13 14 15 16 17 18 19 20 21 22 23 24 25 26 27 28 29 30 31 32 33 34 35 36 37 38 39 40 41 42 43 44 45 46 47 48 49 50
000
ASUS42 KMHX 291225
RWRMHX
WEATHER ROUNDUP FOR EASTERN NORTH CAROLINA
NATIONAL WEATHER SERVICE NEWPORT/MOREHEAD CITY NC
800 AM EDT MON MAY 29 2017

NOTE: "FAIR" INDICATES FEW OR NO CLOUDS BELOW 12,000 FEET
WITH NO SIGNIFICANT WEATHER AND/OR OBSTRUCTIONS TO VISIBILITY

NCZ015>017-031-032-045>047-102-103-291300-
NORTH COAST

CITY           SKY/WX    TMP DP  RH WIND       PRES   REMARKS
EDENTON        SUNNY     75  69  81 CALM      29.89R
ELIZABETH CITY MOSUNNY   71  71 100 W8        29.88R
KITTY HAWK     MOSUNNY   72  72 100 CALM      29.86R
MANTEO         SUNNY     74  71  89 NW6       29.88R

$$

NCZ045>047-081-094-103-104-291300-
CENTRAL COAST

CITY           SKY/WX    TMP DP  RH WIND       PRES   REMARKS
FRISCO         SUNNY     79  70  74 W9        29.89R

$$

NCZ095-097-098-100-101-291300-
SOUTHERN COAST

CITY           SKY/WX    TMP DP  RH WIND       PRES   REMARKS
BEAUFORT       SUNNY     76  71  85 NW8       29.91R
CEDAR ISLAND   NOT AVBL
JACKSONVILLE   SUNNY     74  72  93 W6        29.92R
PINEY ISLAND   SUNNY    N/A N/A N/A W12       29.90R
WILMINGTON     SUNNY     74  70  87 W6        29.92S


$$

NCZ011>013-027>030-043-044-078>080-089-090>093-098-291300-
COASTAL PLAIN

CITY           SKY/WX    TMP DP  RH WIND       PRES   REMARKS
AHOSKIE        NOT AVBL
CLINTON        SUNNY     73  71  95 CALM      29.94R
ELIZABETHTOWN  SUNNY     72  71  95 W3        29.94R
GOLDSBORO      SUNNY     73  73  99 SW6       29.90R
GREENVILLE     MOSUNNY   73  68  83 W3        29.93R
HAVELOCK       SUNNY     76  68  76 W10       29.92R
KENANSVILLE    SUNNY     73  70  88 W5        29.93R
KINSTON        SUNNY     73  68  83 MISG        N/A
NEW BERN       SUNNY     75  70  84 SW6       29.92R
RICHLANDS      SUNNY     74  71  91 W3        29.93R
ROCKY MOUNT    SUNNY     72  66  81 SW6       29.91R
WASHINGTON     SUNNY     75  69  80 W3        29.91R
WHITEVILLE     SUNNY     73  69  88 CALM      29.93S

$$

AMZ130-135-150-152-154-156-158-170-250-252-270-ANZ085-086-088-633-658-670-291300-
MARINE OBSERVATIONS

STATION/POSITION TIME  TEMP    WIND        PRES    WAVE   SWELL
                       AIR SEA DIR/SP/G            HT/PER HT/PER
                 (UTC) (F)     (DEG/KT/KT) (MB)    (FT/S) (FT/S)
CHESAPEAKE LIGHT NOT AVBL
64 E VA BEACH    1150   63 64  300/  8/ 12 1011.3    3/ 6   3/ 6
DUCK             1200   70 68  280/  7/  9 1011.1
2 E DUCK         1200      68                N/A     2/ 7
OREGON INLET     1200   74 67  310/  5/  6 1011.5
13E OREGON INLT  1148      66                N/A     4/ 6   3/ 6
HATTERAS CG      1200   76 74  270/ 13/ 14 1012.0
DIAMOND BUOY     1150   75 76  260/ 14/ 16 1011.9    5/ 6   2/10
CAPE LOOKOUT     1200   75     290/ 11/ 13 1012.6
BEAUFORT LAB     1200   75 74  300/  7/ 10 1012.3
30 SE NEW RVR IN 1208   75 76  300/ 12/ 14 1013.3
30 SE NEW RVR IN 1213      76                N/A     4/ 5
27 SE WRIGHTSVLE 1208   75 76  280/ 12/ 16 1012.7
5 SE WRIGHTSVLE  1208   75 75  290/  8/ 10 1013.1
225 S CAPE HAT   1150   77 76  230/ 14/ 17 1015.2    4/ 6   2/ 8
41 SE CHARLESTON 1210   77 76  290/  8/ 10 1014.5

$$




USA.gov is the U.S. government's official web portal to all federal, state and local government web resources and services.